Regional Weather Roundup
Issued by NWS

Home | Current Version | Previous Version | Text Only | Print | Product List | Glossary Off
Versions: 1 2 3 4 5 6 7 8 9 10 11 12 13 14 15 16 17 18 19 20 21 22 23 24 25 26 27 28 29 30 31 32 33 34 35 36 37 38 39 40 41 42 43 44 45 46 47 48 49 50

000
ASUS45 KBOU 282307
RWRCO

WEATHER ROUNDUP FOR COLORADO
NATIONAL WEATHER SERVICE DENVER/BOULDER CO
500 PM MDT MON JUL 28 2014

NOTE: "FAIR" INDICATES FEW OR NO CLOUDS BELOW 12000 FEET WITH NO
SIGNIFICANT WEATHER AND/OR OBSTRUCTIONS TO VISIBILITY.

COZ001>005-013-030-031-290000-
...NORTHWEST COLORADO...

CITY           SKY/WX    TMP DP  RH WIND       PRES   REMARKS
CRAIG          CLOUDY    75  50  41 SW14      30.26S
HAYDEN         CLOUDY    81  43  26 SW13G18   30.28S
MEEKER         CLOUDY    74  48  39 CALM      30.33F
MOUNT WERNER   NOT AVBL
STEAMBOAT SPGS CLOUDY    83  40  22 NE14      30.31R
WALDEN         MOSUNNY   77  37  24 E17       30.42F
$$

COZ006>008-011-290000-
...WEST CENTRAL VALLEYS...

CITY           SKY/WX    TMP DP  RH WIND       PRES   REMARKS
GRAND JUNCTION MOSUNNY   86  52  30 W10       30.19F
MONTROSE       PTSUNNY   83  49  30 CALM      30.29F
EAGLE          CLOUDY    72  52  49 S8G21     30.36R
RIFLE          LGT RAIN  79  50  36 NW9       30.26R
DELTA          PTSUNNY   90  47  22 SW13      30.23S
NUCLA          PTSUNNY   82  46  28 NE7       30.33
$$

COZ017>023-064>068-290000-
...SOUTHWEST COLORADO...

CITY           SKY/WX    TMP DP  RH WIND       PRES   REMARKS
DURANGO        CLOUDY    71  55  56 SE21G30   30.37S THUNDER
CORTEZ         MOSUNNY   85  55  35 S12       30.29S THUNDER
PAGOSA SPRINGS CLOUDY    66  49  53 SW12      30.47R
TELLURIDE      NOT AVBL
WOLF CREEK PAS NOT AVBL
$$

COZ009-010-012-014-032>034-037-058>063-290000-
...CENTRAL COLORADO...

CITY           SKY/WX    TMP DP  RH WIND       PRES   REMARKS
ASPEN          HVY RAIN  57  54  89 SE8       30.51R FOG
BUENA VISTA    RAIN      59  53  79 S7        30.55R
COPPER MTN     RAIN      52  45  76 E12G20    30.79F VSB 3/4
BERTHOUD PASS  LGT RAIN  43  30  61 SE17      30.82F VSB 1
COTTONWOOD PAS TSTM      54  50  87 SE9       30.67R
GUNNISON       CLOUDY    66  48  52 SW14G20   30.46R
KREMMLING      CLOUDY    77  41  27 W10       30.37F
LEADVILLE      LGT RAIN  51  50  96 SW6       30.64R
MONARCH PASS   FOG       45  45 100 E28       30.85S THUNDER VSB<1/4
SALIDA         CLOUDY    62  57  85 CALM      30.60R
SUNLIGHT       CLOUDY    55  50  82 E6        30.69F THUNDER
WILKERSON PASS RAIN      45  43  93 NE5       30.79
$$

COZ069>075-290000-
...SAN LUIS VALLEY/SANGRE DE CRISTO MOUNTAINS...

CITY           SKY/WX    TMP DP  RH WIND       PRES   REMARKS
ALAMOSA        PTSUNNY   76  48  37 S15       30.41F
LA VETA PASS   PTSUNNY   54  43  66 E8        30.63F THUNDER
SAGUACHE       CLOUDY    70  50  49 W6        30.45F
$$

COZ035-036-038>040-290000-
...NORTHERN COLORADO FRONT RANGE...

CITY           SKY/WX    TMP DP  RH WIND       PRES   REMARKS
DENVER INTL AP CLOUDY    78  58  49 S15       30.30R THUNDER
DMNS CITY PARK   N/A     74  61  65 SE7G14    30.28S
AURORA         LGT RAIN  71  62  73 S15       30.32S
FRONT RANGE AP NOT AVBL
ERIE MUNI ARPT CLOUDY    82  55  39 W3        30.27R
BOULDER MUN AP CLOUDY    81  54  39 CALM      30.27S
CENTENNIAL     CLOUDY    71  60  68 S14       30.33F
BROOMFIELD     CLOUDY    81  55  41 NW7       30.31F
FORT COLLINS   PTSUNNY   84  57  39 NW8       30.23F
LONGMONT       PTSUNNY   88  55  31 CALM      30.27R
$$

COZ041-046-047-076>085-087-088-290000-
...PIKES PEAK/PALMER DIVIDE AND SOUTHERN FOOTHILLS...

CITY           SKY/WX    TMP DP  RH WIND       PRES   REMARKS
COLO. SPRINGS  CLOUDY    70  59  68 S7        30.39F
A. F. ACADEMY  MOSUNNY   67  59  76 S6        30.40F
ELLICOTT       CLOUDY    70  58  65 S7        30.37S
FALCON         CLOUDY    67  57  71 S6        30.44S
FORT CARSON    CLOUDY    70  61  73 SE7       30.36F
LIMON          CLOUDY    76  54  46 S13G20    30.32F
MONUMENT HILL  CLOUDY    63  57  82 S7        30.43S
TRINIDAD       CLOUDY    74  59  59 W6        30.31F
$$

COZ042>045-048>051-090-091-290000-
...NORTHEAST COLORADO...

CITY           SKY/WX    TMP DP  RH WIND       PRES   REMARKS
GREELEY ARPT   PTSUNNY   86  57  37 S10       30.23S
AKRON          PTSUNNY   83  53  35 S17G25    30.25F
BURLINGTON     MOSUNNY   81  51  35 S13G22    30.27F
WRAY             N/A     87  50  27 S13       30.22S
STERLING       PTSUNNY   72  64  78 SE17G38   30.21S
HOLYOKE        MOSUNNY   86  54  32 SE13      30.21F
FORT MORGAN    PTSUNNY   85  52  31 S10       30.24S
$$

COZ086-089-092>099-290000-
...SOUTHEAST COLORADO...

CITY           SKY/WX    TMP DP  RH WIND       PRES   REMARKS
PUEBLO         CLOUDY    79  61  53 NE6       30.27S
LA JUNTA       MOSUNNY   82  61  48 SE15      30.23F
LAMAR          MOSUNNY   81  58  45 S14G24    30.23F
SPRINGFIELD      N/A     74  60  61 S17       30.30F
$$


USA.gov is the U.S. government's official web portal to all federal, state and local government web resources and services.